Meteo Giornale » Osservazioni meteo Spagna » Tenerife-Los Rodeos
ore: 07:00 - Osservazioni Meteo Tenerife-Los Rodeos
Lat. 28° 28' N Lon. 16° 19' W Alt. 632 metri s.l.m.
19 °C
Banco di nebbia
Temp. 24 Ore
19 °C
26 °C
Ovest/Nord-Ovest
27.8 Km/h
Dew point 18 °C
Umidità 93 %
Visibilità 3 Km
Il sole sorge alle ore 07:43
Il sole tramonta alle ore 20:26
| Data e Ora | Cielo e Fenomeni | T °C | DP °C | Um. % | Pres. hPa | Vis. km | Vento km/h | |
|---|---|---|---|---|---|---|---|---|
| Oggi h: 07:00 | Banco di nebbia | 19 | 18 | 93 | 1020 | 3 | O/NO 27.8 | |
| Oggi h: 06:30 | Nuvoloso | 19 | 18 | 93 | 1020 | 10 | O/NO 27.8 | |
| Oggi h: 06:00 | Banco di nebbia | 20 | 19 | 93 | 1020 | 2 | O/NO 24 | |
| Oggi h: 05:30 | Molto Nuvoloso | 20 | 19 | 93 | 1020 | 8 | O/NO 22.2 | |
| Oggi h: 05:00 | Molto Nuvoloso | 19 | 19 | 100 | 1020 | 10 | O/NO 24 | |
| Oggi h: 04:30 | Molto Nuvoloso | 19 | 19 | 100 | 1020 | 7 | O/NO 25.9 | |
| Oggi h: 04:00 | Banco di nebbia | 19 | 19 | 100 | 1021 | 0.75 | O/NO 25.9 | |
| Oggi h: 03:30 | Molto Nuvoloso | 19 | 18 | 93 | 1021 | 1 | O/NO 25.9 | |
| Oggi h: 03:00 | Molto Nuvoloso | 19 | 18 | 93 | 1021 | 10 | O/NO 25.9 | |
| Oggi h: 02:30 | Cielo Invisibile | 19 | 19 | 100 | 1021 | 3 | O/NO 25.9 | |
| Oggi h: 02:00 | Molto Nuvoloso | 19 | 18 | 93 | 1022 | 10 | O/NO 27.8 | |
| Oggi h: 01:30 | Cielo Invisibile | 20 | 19 | 93 | 1022 | 2 | O/NO 24 | |
| Oggi h: 01:00 | Molto Nuvoloso | 20 | 19 | 93 | 1022 | 10 | O/NO 27.8 | |
| Oggi h: 00:30 | Molto Nuvoloso | 19 | 18 | 93 | 1022 | 10 | O/NO 27.8 | |
| Oggi h: 00:00 | Coperto | 20 | 19 | 93 | 1022 | 10 | O/NO 25.9 | |
| Ieri h: 23:30 | Coperto | 20 | 19 | 93 | 1022 | 10 | O/NO 25.9 | |
| Ieri h: 23:00 | Banco di nebbia Nebbia a tratti | 20 | 19 | 93 | 1022 | 2 | O 27.8 | |
| Ieri h: 22:30 | Banco di nebbia Nebbia a tratti | 20 | 19 | 93 | 1022 | 2 | O/NO 25.9 | |
| Ieri h: 22:00 | Banco di nebbia Nebbia a tratti | 20 | 18 | 88 | 1021 | 3 | O/NO 24 | |
| Ieri h: 21:30 | Banco di nebbia Nebbia a tratti | 20 | 18 | 88 | 1021 | 3 | O/NO 27.8 | |
| Ieri h: 21:00 | Banco di nebbia Nebbia a tratti | 20 | 19 | 93 | 1021 | 2 | O 22.2 | |
| Ieri h: 20:30 | Nuvoloso | 20 | 19 | 93 | 1021 | 10 | O 25.9 | |
| Ieri h: 20:00 | Nuvoloso | 21 | 18 | 82 | 1021 | 10 | O/NO 25.9 | |
| Ieri h: 19:30 | Poco Nuvoloso | 22 | 19 | 83 | 1021 | 10 | O 25.9 | |
| Ieri h: 19:00 | Nuvoloso | 23 | 19 | 78 | 1021 | 10 | O 24 | |
| Ieri h: 18:30 | Nuvoloso | 24 | 19 | 73 | 1020 | 10 | O/NO 25.9 | |
| Ieri h: 18:00 | Poco Nuvoloso | 24 | 18 | 69 | 1020 | 10 | O/NO 24 | |
| Ieri h: 17:30 | Poco Nuvoloso | 25 | 18 | 65 | 1020 | 10 | O 27.8 | |
| Ieri h: 17:00 | Nuvoloso | 25 | 19 | 69 | 1020 | 10 | O/NO 27.8 | |
| Ieri h: 16:30 | Nuvoloso | 25 | 19 | 69 | 1021 | 10 | O/NO 25.9 | |
| Ieri h: 16:00 | Nuvoloso | 25 | 19 | 69 | 1021 | 10 | O 24 | |
| Ieri h: 15:30 | Nuvoloso | 26 | 19 | 65 | 1021 | 10 | O/NO 22.2 | |
| Ieri h: 15:00 | Nuvoloso | 25 | 18 | 65 | 1021 | 10 | O/NO 25.9 | |
| Ieri h: 14:30 | Nuvoloso | 25 | 18 | 65 | 1022 | 10 | O/NO 22.2 | |
| Ieri h: 14:00 | Nuvoloso | 25 | 17 | 61 | 1022 | 10 | O/NO 24 | |
| Ieri h: 13:30 | Nuvoloso | 25 | 18 | 65 | 1022 | 10 | O/NO 24 | |
| Ieri h: 13:00 | Nuvoloso | 25 | 18 | 65 | 1022 | 10 | NO 20.3 | |
| Ieri h: 12:30 | Nuvoloso | 24 | 18 | 69 | 1022 | 10 | NO 22.2 | |
| Ieri h: 12:00 | Nuvoloso | 24 | 18 | 69 | 1022 | 10 | O/NO 25.9 | |
| Ieri h: 11:30 | Nuvoloso | 24 | 18 | 69 | 1022 | 10 | O/NO 27.8 | |
| Ieri h: 11:00 | Nuvoloso | 23 | 17 | 68 | 1022 | 10 | O/NO 29.6 | |
| Ieri h: 10:30 | Nuvoloso | 23 | 18 | 73 | 1021 | 10 | O/NO 24 | |
| Ieri h: 10:00 | Poco Nuvoloso | 22 | 18 | 78 | 1021 | 10 | O/NO 22.2 | |
| Ieri h: 09:30 | Poco Nuvoloso | 21 | 18 | 82 | 1021 | 10 | O 25.9 | |
| Ieri h: 09:00 | Poco Nuvoloso | 21 | 18 | 82 | 1021 | 10 | O 24 | |
| Ieri h: 08:30 | Nuvoloso | 20 | 18 | 88 | 1020 | 10 | O 22.2 | |
| Ieri h: 08:00 | Nuvoloso | 19 | 18 | 93 | 1020 | 10 | O 22.2 | |



